Wind_Speed
18 18 18 18 18 18 19 19 19 19 19 20 19 19 20 20 21 21 21 21 21 21 21 22 22 22 22 22 22 22 22 22 22 21 21 21 21 20
20 20 19 19 19 19 20 20 20 20 20 20 20 20 20 21 21 21 22 22 22 22 23 23 23 23 23 23 24 24 24 23 22 22 22 22 22 22
21 21 21 21 20 21 21 21 21 21 21 21 21 21 21 21 22 22 22 23 23 23 24 24 24 24 24 23 23 23 24 23 23 23 23 23 24 23
22 22 22 22 22 22 22 22 22 22 23 23 23 22 22 22 23 24 24 24 24 24 24 25 25 25 24 24 24 24 24 25 25 25 25 25 25 24
23 24 24 25 25 24 24 24 25 25 24 25 25 24 24 24 24 24 25 25 25 25 25 25 25 25 25 25 25 25 26 26 26 26 26 26 26 26
25 25 25 26 26 27 27 26 26 26 26 26 26 26 26 25 25 25 25 26 26 26 26 26 26 26 27 27 26 26 27 27 27 27 27 27 27 27
26 26 26 26 27 28 28 28 28 27 27 27 27 27 27 26 26 26 27 27 27 27 27 28 27 27 27 27 27 27 28 28 28 28 27 27 28 28
27 27 27 27 28 28 28 28 28 28 27 27 27 27 26 27 26 26 27 27 27 27 27 28 28 28 29 28 28 28 29 28 28 28 27 27 27 27
27 27 28 28 27 28 28 28 28 28 28 28 27 26 26 26 26 26 26 27 27 28 28 27 27 27 28 28 28 28 28 28 29 27 27 27 27 27
28 28 28 28 28 27 27 28 28 28 28 28 28 27 27 27 27 27 27 27 27 28 28 27 27 27 27 27 28 28 28 28 28 28 28 27 27 27
28 28 28 28 28 28 28 28 28 27 28 29 28 28 28 28 28 28 28 28 27 27 27 27 26 27 27 27 28 28 28 28 29 29 28 28 28 27
28 28 28 28 28 28 29 29 29 28 28 28 28 28 28 28 28 28 28 28 27 27 27 27 27 26 26 26 27 28 28 28 28 29 29 28 28 27
29 29 29 29 29 29 29 29 29 29 29 29 28 28 29 28 28 28 28 28 28 28 27 27 27 27 26 26 26 27 27 28 28 28 28 28 28 27
29 30 30 30 30 30 30 29 29 29 29 29 29 29 29 29 29 28 29 29 28 28 27 27 27 27 27 26 26 27 27 27 27 27 27 27 27 27
29 29 29 29 29 29 29 29 29 28 28 29 28 28 28 29 29 30 30 29 29 28 27 27 27 27 27 27 26 27 27 27 27 27 26 26 27 28
29 28 28 28 29 28 28 28 29 29 28 28 28 28 28 28 28 29 29 29 28 27 26 27 27 26 26 26 26 26 27 27 27 27 26 26 27 27
29 28 28 28 28 28 28 29 29 28 28 28 28 28 28 28 28 28 28 28 28 27 27 27 27 27 27 27 27 26 27 27 27 27 26 26 26 26
29 29 29 28 28 27 27 27 28 28 28 27 27 27 28 28 28 28 28 28 27 27 27 27 27 27 28 27 27 27 27 27 27 28 27 27 26 27
29 29 29 28 27 27 27 26 27 27 27 27 27 26 27 27 27 27 27 27 27 27 27 27 27 27 28 28 28 28 28 28 28 28 28 27 27 28
28 28 28 28 27 27 27 27 26 26 26 26 26 26 26 27 27 26 26 26 26 26 27 27 27 27 27 27 28 29 29 29 29 28 28 28 28 28
28 28 28 28 27 27 27 27 27 26 26 27 27 26 26 26 26 26 27 27 26 27 27 27 27 27 27 28 28 28 28 29 29 29 29 29 28 28
27 27 27 27 27 27 27 27 27 27 27 27 28 27 27 26 26 27 27 27 27 27 27 27 27 27 28 28 28 27 28 28 28 28 29 29 29 28
26 26 26 26 26 27 27 27 26 26 27 27 28 28 28 27 27 27 27 28 28 28 28 28 28 28 28 28 28 27 27 27 27 28 28 28 29 28
Wind_Direction
264 264 264 263 264 265 265 264 264 264 264 263 260 258 256 256 258 258 257 257 256 256 257 256 257 257 257 257 256 256 256 257 256 257 258 260 262 265
265 265 266 265 264 265 265 265 265 265 264 263 260 260 260 259 258 256 256 256 257 258 257 258 259 260 259 258 256 256 257 258 257 256 259 260 261 263
267 267 267 266 265 265 266 266 266 265 263 264 263 262 263 262 259 258 257 256 256 256 257 257 258 260 260 258 257 256 257 258 258 259 259 259 261 263
268 267 267 266 266 266 266 266 267 266 265 264 264 264 264 263 262 260 259 259 258 258 258 257 258 259 260 260 259 259 259 258 259 260 261 261 262 262
269 269 268 267 267 267 267 267 267 267 267 266 265 265 264 264 263 263 262 260 259 259 259 259 259 260 261 259 257 257 257 257 258 260 262 262 262 262
271 270 269 269 267 266 266 267 267 267 267 267 267 264 263 263 262 262 262 261 259 259 259 259 259 261 261 259 258 258 256 257 258 260 261 262 263 263
271 271 269 269 268 267 267 266 267 267 267 267 266 264 263 263 263 262 262 262 260 259 260 260 260 260 260 260 259 258 257 257 259 260 261 262 263 263
271 271 270 269 268 267 267 267 266 266 266 267 266 264 262 263 263 263 262 262 261 261 261 260 261 260 260 260 261 260 258 258 259 259 260 260 262 262
271 271 270 269 269 268 267 266 266 266 266 267 265 263 262 263 264 263 262 261 261 260 260 260 260 261 260 260 260 260 259 259 259 259 260 261 261 260
271 271 269 269 269 269 267 266 266 266 265 265 264 263 263 263 263 263 262 261 261 260 259 261 261 259 260 260 258 258 259 259 259 260 261 261 260 259
270 270 270 269 269 268 268 267 266 265 265 265 264 264 264 263 262 263 263 262 261 261 260 260 260 259 258 258 257 256 257 258 259 261 261 261 260 259
269 270 270 270 269 269 269 268 267 267 266 265 263 264 263 263 262 262 263 262 260 260 259 259 258 258 258 259 258 256 256 257 258 260 259 259 258 258
269 269 270 269 269 269 269 269 268 267 267 264 262 263 264 263 262 262 262 261 262 263 261 259 256 256 257 258 258 257 256 257 259 261 259 258 257 258
270 269 270 269 269 269 268 268 268 267 264 262 262 262 262 261 260 260 261 261 262 263 262 258 255 255 256 257 257 257 258 259 259 261 260 258 257 258
269 270 270 269 268 268 267 267 267 266 264 262 262 262 261 261 259 259 259 259 260 262 260 258 255 256 256 257 257 257 258 259 258 257 258 259 259 258
269 269 269 269 268 267 266 265 265 265 264 263 261 262 260 259 259 258 258 258 258 258 257 257 255 255 256 257 257 259 259 258 257 258 258 259 259 259
270 269 269 270 270 268 266 265 265 264 263 263 261 260 259 259 259 258 257 257 257 256 257 257 257 256 256 256 256 258 259 258 258 258 259 259 259 257
269 268 268 268 269 268 266 264 264 262 261 261 261 259 258 258 258 258 259 258 257 255 256 256 257 258 256 255 256 257 257 258 258 258 259 260 258 257
270 269 267 267 267 266 264 263 263 262 260 260 259 259 258 258 257 258 258 259 258 256 256 257 258 258 257 255 255 256 257 256 256 258 259 260 259 257
270 270 268 265 264 264 264 262 262 262 260 259 259 260 259 258 256 257 257 257 258 257 256 257 258 258 258 256 255 255 256 256 256 257 258 259 259 259
271 270 269 266 263 263 263 262 261 261 261 259 259 259 258 257 257 257 257 258 259 258 258 259 259 259 258 256 255 255 255 256 257 257 257 257 257 258
273 271 269 265 263 261 261 260 260 259 259 258 259 258 258 257 258 258 258 258 259 259 259 259 259 258 258 258 257 256 256 256 256 257 256 256 257 258
273 273 270 265 262 261 261 260 260 259 258 258 258 258 259 259 259 259 258 259 259 259 258 259 260 259 258 258 258 258 258 258 258 257 257 257 257 258
Height
5791 5790 5790 5790 5790 5789 5789 5789 5789 5789 5789 5788 5788 5788 5788 5788 5788 5789 5789 5790 5790 5791 5792 5792 5793 5794 5795 5795 5796 5797 5797 5798 5798 5799 5800 5801 5801 5802
5785 5785 5785 5785 5784 5784 5784 5784 5784 5783 5783 5783 5783 5782 5782 5782 5782 5783 5783 5784 5784 5785 5786 5786 5787 5788 5788 5789 5790 5790 5791 5792 5792 5793 5794 5795 5795 5796
5780 5779 5779 5779 5779 5778 5778 5778 5778 5777 5777 5777 5777 5776 5776 5776 5776 5776 5777 5777 5778 5778 5779 5780 5781 5781 5782 5782 5783 5783 5784 5785 5786 5787 5787 5788 5789 5789
5773 5773 5773 5773 5772 5772 5772 5772 5771 5771 5771 5771 5770 5770 5769 5769 5769 5769 5770 5770 5771 5772 5772 5773 5774 5774 5775 5775 5776 5777 5777 5778 5779 5780 5781 5782 5782 5782
5767 5766 5766 5766 5765 5765 5765 5764 5764 5764 5764 5764 5763 5763 5762 5762 5762 5762 5763 5763 5764 5765 5765 5766 5767 5767 5768 5768 5769 5770 5771 5771 5772 5773 5774 5774 5775 5775
5759 5759 5758 5758 5758 5757 5757 5757 5756 5756 5756 5756 5755 5755 5755 5755 5755 5755 5755 5755 5756 5757 5757 5758 5759 5760 5760 5761 5761 5762 5763 5764 5765 5766 5766 5767 5767 5768
5751 5750 5750 5750 5749 5749 5749 5748 5748 5748 5747 5747 5747 5747 5747 5746 5747 5747 5747 5747 5748 5748 5749 5750 5751 5751 5752 5752 5753 5754 5755 5756 5756 5757 5758 5759 5759 5760
5742 5742 5741 5741 5740 5740 5740 5739 5739 5739 5739 5738 5738 5738 5738 5738 5738 5738 5738 5739 5740 5741 5740 5741 5742 5742 5743 5744 5744 5745 5746 5747 5748 5748 5749 5750 5751 5751
5734 5733 5733 5732 5731 5731 5730 5730 5730 5729 5730 5730 5730 5729 5730 5730 5730 5730 5730 5730 5731 5731 5731 5732 5733 5733 5734 5735 5736 5737 5737 5738 5739 5740 5741 5742 5742 5743
5724 5724 5723 5723 5722 5722 5721 5721 5721 5721 5721 5721 5721 5721 5721 5721 5721 5721 5720 5721 5722 5722 5723 5724 5724 5724 5725 5726 5727 5728 5729 5730 5731 5732 5733 5733 5734 5734
5716 5715 5714 5714 5714 5713 5713 5712 5712 5712 5712 5712 5712 5712 5712 5712 5712 5712 5712 5712 5713 5713 5714 5715 5715 5716 5716 5717 5718 5719 5720 5722 5723 5724 5724 5725 5725 5726
5706 5706 5705 5705 5704 5704 5703 5703 5703 5703 5703 5703 5703 5703 5703 5703 5703 5703 5704 5704 5704 5705 5705 5706 5707 5707 5708 5709 5710 5711 5712 5713 5714 5715 5716 5716 5717 5717
5697 5696 5696 5696 5695 5694 5694 5694 5693 5693 5693 5693 5693 5693 5693 5693 5694 5694 5695 5695 5696 5696 5697 5697 5698 5699 5700 5702 5702 5703 5704 5705 5706 5706 5706 5707 5708 5709
5687 5687 5686 5686 5685 5685 5684 5684 5683 5683 5683 5683 5683 5683 5684 5684 5685 5685 5686 5686 5687 5687 5687 5688 5689 5691 5692 5693 5694 5695 5696 5696 5697 5697 5698 5698 5699 5700
5677 5677 5676 5676 5675 5675 5674 5674 5674 5673 5673 5673 5673 5674 5674 5675 5675 5676 5677 5677 5678 5678 5679 5679 5681 5682 5683 5685 5686 5687 5687 5688 5688 5689 5689 5690 5691 5692
5668 5667 5667 5666 5665 5665 5665 5664 5664 5664 5664 5664 5664 5665 5665 5665 5666 5667 5668 5669 5669 5670 5670 5671 5672 5674 5675 5676 5677 5678 5679 5679 5680 5681 5681 5682 5682 5683
5658 5658 5657 5657 5656 5655 5655 5655 5654 5654 5654 5654 5655 5656 5656 5657 5658 5658 5659 5660 5661 5662 5662 5663 5664 5665 5666 5668 5669 5670 5670 5671 5672 5672 5673 5673 5674 5674
5647 5647 5647 5647 5647 5646 5646 5645 5645 5645 5645 5646 5646 5647 5648 5648 5649 5650 5650 5651 5652 5653 5654 5655 5656 5657 5658 5659 5661 5661 5662 5663 5663 5664 5664 5665 5666 5666
5637 5637 5637 5637 5637 5637 5637 5636 5636 5636 5636 5637 5638 5638 5639 5640 5641 5641 5642 5643 5644 5645 5645 5646 5647 5648 5649 5651 5652 5652 5653 5654 5654 5655 5656 5656 5657 5658
5628 5627 5627 5627 5627 5627 5627 5627 5627 5627 5628 5628 5629 5630 5630 5631 5632 5633 5634 5634 5635 5636 5637 5637 5638 5639 5640 5642 5642 5643 5644 5645 5645 5646 5647 5648 5648 5649
5618 5618 5618 5617 5617 5618 5618 5618 5618 5619 5619 5619 5620 5621 5622 5622 5623 5624 5625 5626 5627 5627 5628 5629 5630 5630 5631 5632 5633 5634 5635 5635 5636 5637 5638 5639 5640 5640
5608 5608 5608 5608 5608 5608 5608 5609 5609 5609 5610 5611 5611 5612 5613 5614 5615 5616 5616 5617 5618 5619 5619 5620 5621 5621 5622 5623 5624 5625 5626 5626 5627 5627 5628 5630 5630 5632
5600 5599 5599 5598 5598 5599 5599 5600 5600 5600 5601 5602 5602 5603 5604 5605 5606 5606 5607 5608 5609 5610 5611 5611 5612 5612 5613 5614 5615 5616 5616 5617 5618 5619 5620 5621 5621 5622